FENGYUN 1C DEB, 30701

Orbit data source: Space-Track

FENGYUN 1C DEB, 30701 is space debris in SSO originally from a launch on Mon, 10 May 1999 UTC launched from the Taiyaun Space Center, China (TSC). Fengyun 1C debris stems from the Chinese weather satellite Fengyun-1C, which was intentionally destroyed by a Chinese anti-satellite missile in 2007. This event dramatically increased the amount of space debris, with thousands of trackable fragments posing hazards to satellites and human spaceflight. The Fengyun 1C debris cloud has become a focal point in discussions about space sustainability and the need for international regulations to prevent the creation of new debris.

Loading next visibility...
Identifier
30701, 1999-025ARK
Orbit
SSO
Country
Flag of CNCN / PRC
Related business
Manufacturer
Unknown
Mission
Spacecraft
Bus & Motor
Unknown
Mass
Unknown
Launch date (UTC)
1999-05-10 (27 years ago)
Launch vehicle
Unknown
Launch site
Taiyaun Space Center, China (TSC)
Object type
Payload
Rocket body
Debris
Shape & HBR
Unknown shape, 0.1 m
Radar Cross Section
Medium (>0.1 m² and <1 m²)

Expand to show TLE details & history
Last TLE update: 19 hours ago

TLE from 19 hours ago
0 FENGYUN 1C DEB
1 30701U 99025ARK 26256.59096946 -.00000026  00000-0  86237-5 0  9995
2 30701  98.6822 295.5457 0035330  40.2679 112.8908 14.13950761 10048
Epoch: 2026-09-13T14:10Z
TLE epoch observation values (Epoch: 2026-09-13T14:10:59.761Z)
Latitude
26.17729°
Longitude
-85.50455°
Altitude
859.062 km
Speed
7.42 km/s
True Right ascension
07h 59m 18s
True Declination
26° 02' 36"
Sunlit
Object was in daylight at epoch
Visualization orbit readout
Latitude
Unknown
Longitude
Unknown
Altitude
Unknown
Speed
Unknown
Apparent Right ascension
Unknown
Apparent Declination
Unknown
Sunlit
N/A
Visualization observer readout
Local Sidereal Time
01:37:46
Azimuth
Unknown
Elevation
Unknown
Doppler factor
Unknown
Orbital elements
Apogee altitude
868.562 km
Perigee altitude
817.537 km
Semi-major axis
7,221.186 km
Eccentricity
0.00353
Inclination
98.6822°
RAAN
295.5457°
Arg. of periapsis
40.2679°
True anomaly
113.26313°
Mean anomaly
112.8908°
Eccentric anomaly
113.07703°
Mean motion
3.53696 °/min
Orbital period
101.78 mins
BSTAR
0.0000086237
Loading maneuver chart data...
Computing Atmospheric mass density...
Loading historical data...
Loading historical data...
Loading historical data...
Loading historical data...
Loading historical data...
Loading historical data...
Loading historical data...

Documentation

Showing up to 5 results
|